Погода в Череповеце

Хотите узнать прогноз погоды в Череповеце? Тогда Вам сюда: Погода в Череповеце

Поиск расширенной информации на нашем сайте:

Полезная информация:

Новости сайта



02.01.2020
Опубликован Долгосрочный прогноз погоды по городам России и ближнего зарубежья на январь 2020 года.
Карты: Прогноз на январь и февраль 2020 года, Сравнение прогнозируемой аномалии приземной температуры воздуха на январь 2020 года по разным моделям.




Погода в Череповеце - сегодня

Время (UTC), дата Ветер
(°,м/с) 
Видим.   Явления Облачность Т
(°С)
Тd
(°С)
f(%) Тe
(°С)
Pmin
(гПа)
dP
(гПа)
Po
(мм)
O2
(г/м3)
Тmin Tmax R s Состояние
почвы
15 19.10.20 220 (ЮЗ) 10 км    4/4 600 м кучево-дожд. 
[Cb calv]
+1.4 +0 90 -1  1004.4  0.2  742  298    +4.6  0.3     
18 19.10.20 220 (ЮЗ) 10 км    6/6 660 м 
[Sc]
+1.4 +0.3 92 -1  1003.8  -0.6  742  297           
21 19.10.20 230 (ЮЗ) 10 км    9/9 270 м 
[Sc]
+1.9 +0.6 91 +1  1003.1  -0.6  741  297           
00 20.10.20 240 (ЮЗ) 10 км    9/9 210 м 
[Sc]
+1.7 +0.9 94 +1  1002.4  -0.7  741  297           
03 20.10.20 250 (З) 10 км  в посл. час ливневой снег  10/10 240 м кучево-дожд. 
[Cb calv]
+0.8 +0 94 -1  1003.2  0.7  741  298  +0.5    0.3    влажная 
06 20.10.20 260 (З) 10 км  в посл. час ливневой снег  9/9 210 м кучево-дожд. 
[Cb calv]
+0.9 -0.2 92 -1  1005  1.8  743  298           
09 20.10.20 260 (З) 10 км  слаб. ливневой снег  10/10 210 м кучево-дожд. 
[Cb calv]
+1.6 +0.8 94 1006.5  1.6  744  298           
12 20.10.20 280 (З) 10 км  в посл. час ливневой снег  9/6 400 м кучево-дожд., средняя, верхняя 
[Cb calv|Ac trans|Ci fib]
+2.1 +0.8 91 1008.8  2.2  746  298           
15 20.10.20 290 (З) 5{10}  1700 м  ливневой снег  10/10 150 м кучево-дожд. 
[Cb calv]
+0.9 -0.2 92 -2  1011.7  2.8  748  300    +3.3  0.7     
18 20.10.20 290 (З) 10 км  {ливн. осадки}  1/1 300 м 
[Sc]
-0.7 -1.3 96 1013.7  1.9  749  303           
21 20.10.20 270 (З) 10 км    6/6 240 м 
[St]
-0.8 -2 92 -2  1015.1  1.4  750  303           
00 21.10.20 290 (З) 10 км    8/8 330 м 
[Sc]
-1.1 -2.7 89 -2  1015.8  0.7  751  304           
03 21.10.20 280 (З) 10 км  в посл. час ливневой снег  9/9 330 м кучево-дожд. 
[Cb calv]
-1 -2.9 87 -3  1017.2  1.4  752  304  -1.7    0.3    замёрзшая 
06 21.10.20 280 (З) 10 км  {ливн. осадки}  9/9 330 м 
[Sc]
-1.1 -3.4 84 -3  1017.9  0.6  752  305           
09 21.10.20 270 (З) 10 км    8/6 500 м средняя 
[Sc|Ac trans]
+0.2 -3.3 77 -2  1018.4  0.6  753  303           
12 21.10.20 250 (З) 10 км    8/8 630 м 
[Sc]
+2.1 -3.2 68 +1  1018.5  0.2  753  301           
15 21.10.20 тихо ()   10 км    4/3 600 м средняя, верхняя 
[Sc|Ac trans|Ci fib]
-2.2 -2.8 96 -2  1018.9  0.2  753  306    +2.7       
18 21.10.20 тихо ()   10 км    3/0 средняя, верхняя 
[Ac trans|Ci fib]
-4.2 -4.4 99 -4  1018.8  -0.2  753  309           
21 21.10.20 тихо ()   10 км    3/0 средняя, верхняя 
[Ac trans|Ci fib]
-5.4 -6.1 95 -5  1019.2  0.3  753  310           
00 22.10.20 тихо ()   10 км    3/0 средняя, верхняя 
[Ac trans|Ci fib]
-5.6 -6.3 95 -6  1019.1  -0.1  753  310           
03 22.10.20 тихо ()   10 км    1/0 верхняя 
[Ci fib]
-5.4 -6.1 95 -5  1018.5  -0.6  753  310  -6.5        замёрзшая 
06 22.10.20 100 (В) 6000 м  дымка  9/6 480 м средняя 
[Sc|Ac trans]
-2.6 -3.3 95 -4  1017.2  -1.2  752  306           
09 22.10.20 120 (ЮВ) 10 км    10/10 300 м 
[Sc]
+0.6 -0.2 94 -2  1015.9  -1  751  302           
12 22.10.20 130 (ЮВ) 10 км  {ливн. осадки}  10/10 240 м 
[Sc]
+1.8 +0.2 89 1013  -2.8  749  300           
15 22.10.20 140 (ЮВ) 10 км    10/10 210 м 
[Sc]
+1.6 +0.2 90 -1  1010.4  -2.6  747  299    +1.9  0.0     
Время (UTC), дата Ветер
(°,м/с) 
Видим.   Явления Облачность Т
(°С)
Тd
(°С)
f(%) Тe
(°С)
Pmin
(гПа)
dP
(гПа)
Po
(мм)
O2
(г/м3)
Тmin Tmax R s Состояние
почвы

Для получения пояснительной информации подведите курсор к названию столбца.

ПОГОДА в Череповеце - архив

Всё, что Вы хотите узнать о погоде в Череповеце - удобно и подробно!

Выберите нужную дату (начиная с 1 января 2019* года) и нажмите кнопку "Найти".
Будут отображены архивные сводки погоды по пункту Череповец, начиная с указанной даты.


Отображать данные в формате CSV (для использования в таблицах Excel)


Внимание! Наш архив погоды предназначен исключительно для личного некоммерческого использования в познавательных целях. Если Вам необходимы официальные справки о состоянии погоды (для производственных, юридических, коммерческих и т.п. целей), обращайтесь в органы Росгидромета.

*Примечание: данная дата относится к архиву по метеостанциям СССР (Россия, СНГ, Балтия).
Архив по метеостанциям Зарубежной Европы и Азии (кроме Китая) хранится 10 дней, по другим регионам земного шара (Китай, Африка, Америка, Австралия, Океания) - 1 день.

Череповец - район местоположения метеостанции


Название, широта, долгота, высота метеостанции:
Череповец 59.2°ш. 38°д. 114 м над ур. моря [Российская Федерация]

Дополнительная информация

В oтличие oт бoльшинства пoгoдных сайтoв мы публикуем пoдрoбную метеoинфoрмацию в детальнoм прoфессиoнальнoм фoрмате.

Характеристики температуры и влажнoсти вoздуха измеряются на высoте 2 м в тени вдали oт зданий и деревьев.
Скoрoсть ветра измеряется на высoте 10 м (на урoвне рoста челoвека скoрoсть ветра ниже в 1.5-2 раза). Если метеoстанция нахoдится в гoрoде или в лесу, тo скoрoсть ветра занижена на 2-4 м/с пo сравнению с oткрытым местoм. Скoрoсть ветра над акватoриями крупных рек и oзёр, а также на вершинах хoлмoв на 2-5 м/с выше, чем в oбычных услoвиях.
Атмoсфернoе давление в разных тoчках местнoсти мoжет значительнo oтличаться oт давления на метеoстанции, в зависимoсти oт услoвий рельефа (при пoдъёме на 10 м давление пoнижается примернo на 1 мм рт.ст.).